Location: Gro� Glienicke
(52.4675°N, 13.1079°E)
Time: 01:22:55
(UTC+00:00)

Spot 4 - Pass Details

Date: 06 July 2020
Orbit: 705 x 722 km, 98.3° (Epoch: 11 August)

Event Time Altitude Azimuth Distance (km) Brightness Sun altitude
Exits shadow 22:06:50 20° 176° (S) 1,601 5.0 -13.6°
Maximum altitude 22:10:07 70° 257° (WSW) 755 3.9 -13.7°
Drops below altitude 10° 22:14:54 10° 341° (NNW) 2,189 7.8 -13.9°
Sets 22:17:11 0° 344° (NNW) 3,112 9.2 -14.0°
